Location: Triton
(47.6048°N, 122.9899°W)
Time: 13:54:54
(UTC+00:00)

BlueWalker 3 - Pass Details

Date: 23 February 2026
Orbit: 451 x 457 km, 53.2° (Epoch: 14 March)

Event Time Altitude Azimuth Distance (km) Brightness Sun altitude
Rises 13:36:53 0° 194° (SSW) 2,461 5.3 -15.3°
Reaches altitude 10° 13:39:36 10° 172° (S) 1,592 4.5 -14.8°
Maximum altitude 13:41:53 16° 133° (SE) 1,264 4.6 -14.4°
Drops below altitude 10° 13:44:10 10° 93° (E) 1,597 5.9 -14.1°
Sets 13:46:54 0° 71° (ENE) 2,474 7.0 -13.6°
